Renton, WA
on Tuesday, December 11, 2012

Tuesday
Previous Day Next Day
Daily Summary
 ActualAverage (KSEA)Record (KSEA)
Temperature
Mean Temperature °F 41°F  
Max Temperature 48°F 46°F 56°F (1959)
Min Temperature 44°F 35°F 21°F (2009)
Degree Days
Heating Degree Days 19 24  
Month to date heating degree days 260  
Since 1 July heating degree days 1443  
Cooling Degree Days 0 0  
Month to date cooling degree days 0  
Year to date cooling degree days 189  
Moisture
Dew Point 40°F   
Average Humidity 79    
Maximum Humidity 87    
Minimum Humidity 76    
Precipitation
Precipitation 0.12 in 0.17 in 1.42 in (2010)
Month to date precipitation 2.04  
Year to date precipitation 34.18  
Snow
Snow 0.00 in in 4.20 in (1972)
Month to date snowfall  
Since 1 July snowfall  
Snow Depth in   
Wind
Wind Speed 7 mph   
Max Wind Speed 10 mph   
Max Gust Speed 17 mph   
Visibility 10 miles   
Events Rain   

Key: T is trace of precipitation, MM is missing value
Source: NWS Daily Summary
Time(PST)TemperatureDew PointHumidity Pressure Visibility Wind DirectionWind SpeedGust SpeedPrecipitationEvents Conditions
12:53 AM 46.0°F 41.0°F 83% 30.06 in 10.0 miles SE 9.2 mph 16.1 mph N/A   Overcast
1:53 AM 45.0°F 39.9°F 82% 30.02 in 10.0 miles SSE 6.9 mph - N/A   Overcast
2:20 AM 44.6°F 39.2°F 81% 29.99 in 10.0 miles SSE 6.9 mph - N/A   Overcast
2:53 AM 45.0°F 39.9°F 82% 29.98 in 10.0 miles ESE 5.8 mph - N/A   Overcast
3:44 AM 44.6°F 39.2°F 81% 29.95 in 10.0 miles SE 4.6 mph - N/A   Overcast
3:53 AM 45.0°F 39.9°F 82% 29.95 in 10.0 miles SSE 5.8 mph - N/A   Overcast
4:53 AM 46.0°F 39.9°F 79% 29.91 in 10.0 miles SSE 8.1 mph - N/A   Overcast
5:00 AM 46.4°F 39.2°F 76% 29.89 in 10.0 miles SSE 8.1 mph - N/A   Overcast
5:21 AM 46.4°F 39.2°F 76% 29.88 in 10.0 miles SSE 6.9 mph - N/A   Mostly Cloudy
5:43 AM 46.4°F 39.2°F 76% 29.87 in 10.0 miles SSE 9.2 mph - N/A   Overcast
5:53 AM 46.0°F 39.0°F 76% 29.88 in 10.0 miles SSE 8.1 mph - N/A   Overcast
6:30 AM 46.4°F 39.2°F 76% 29.85 in 10.0 miles South 9.2 mph - N/A   Overcast
6:53 AM 46.0°F 39.0°F 76% 29.85 in 10.0 miles SE 6.9 mph - N/A   Overcast
7:41 AM 44.6°F 39.2°F 81% 29.79 in 10.0 miles SE 10.4 mph 17.3 mph N/A   Overcast
7:53 AM 45.0°F 39.0°F 80% 29.80 in 10.0 miles SSE 5.8 mph - N/A   Overcast
8:53 AM 46.0°F 39.0°F 76% 29.78 in 10.0 miles ESE 3.5 mph - N/A   Overcast
9:53 AM 46.9°F 39.9°F 77% 29.76 in 8.0 miles Calm Calm - 0.00 in Rain Light Rain
10:53 AM 46.0°F 41.0°F 83% 29.73 in 10.0 miles ESE 3.5 mph - 0.03 in   Overcast
11:53 AM 46.9°F 41.0°F 80% 29.68 in 10.0 miles East 8.1 mph - N/A   Overcast
12:53 PM 48.0°F 41.0°F 77% 29.65 in 7.0 miles SE 4.6 mph - N/A   Overcast
1:53 PM 48.0°F 41.0°F 77% 29.61 in 5.0 miles SE 5.8 mph - 0.03 in Rain Light Rain
2:53 PM 46.9°F 41.0°F 80% 29.60 in 10.0 miles SE 6.9 mph - 0.01 in Rain Light Rain
3:53 PM 46.0°F 41.0°F 83% 29.58 in 9.0 miles ESE 4.6 mph - 0.03 in Rain Light Rain
4:53 PM 46.0°F 42.1°F 86% 29.57 in 10.0 miles ESE 4.6 mph - 0.02 in Rain Light Rain
5:45 PM 46.4°F 42.8°F 87% 29.57 in 10.0 miles Calm Calm - 0.00 in   Overcast
5:53 PM 46.9°F 41.0°F 80% 29.59 in 10.0 miles SE 3.5 mph - 0.00 in   Overcast
6:53 PM 46.9°F 39.9°F 77% 29.58 in 10.0 miles SSE 5.8 mph - N/A   Overcast
7:53 PM 46.0°F 39.9°F 79% 29.59 in 10.0 miles SE 3.5 mph - N/A   Overcast
8:53 PM 46.0°F 39.9°F 79% 29.60 in 10.0 miles SE 3.5 mph - N/A   Overcast
9:53 PM 46.9°F 39.9°F 77% 29.61 in 10.0 miles South 8.1 mph - N/A   Overcast
10:53 PM 46.9°F 39.9°F 77% 29.63 in 10.0 miles SSE 5.8 mph - N/A   Overcast
11:53 PM 46.9°F 39.9°F 77% 29.64 in 10.0 miles SSE 4.6 mph - N/A   Overcast
Moon Phase
Dec. 11 Dec. 13 Dec. 20 Dec. 28 Jan. 04
Sunrise:07:47 AM (PST) Moon Rise:05:44 AM (PST)12/11
Sunset:04:17 PM (PST) Moon Set:03:04 PM (PST)12/11

Copyright © 2014 The Weather Underground, Inc.